Zurück zum Katalog

SL-16 DEB

AktivLEO
NORAD 39715·DEBRIS·🇷🇺 Russia

Gestartet Dec 25, 1992 von Baikonur Cosmodrome

Loading…

Nächste Überflüge (nächste 24 Stunden)

TLE

AktuellSource: Space-Track

Epoche: Sep 13, 2026, 14:15 UTC

1 39715U 92093KF  26256.59395771  .00000572  00000-0  22682-3 0  9992
2 39715  71.0132 328.9994 0006427 277.5905  82.4498 14.33020107647181

Verfolge SL-16 DEB in Echtzeit mit AllMySat

Download on the App Store